Weather History for Lyndonville, VT

Change the Weather History Date:

Thursday, May 23, 2013

  Actual Average (K1V4) Record (K1V4)
Temperature  
Mean Temperature 64 °F 59 °F  
Max Temperature 73 °F 71 °F 92 °F (1977)
Min Temperature 56 °F 47 °F 27 °F (1935)
Cooling Degree Days 0 1  
Month to date cooling degree days 6  
Year to date cooling degree days 7  
Growing Degree Days 14 (Base 50)    
Moisture  
Dew Point 58 °F    
Average Humidity 84    
Maximum Humidity 91    
Minimum Humidity 68    
Precipitation  
Precipitation 0.00 in 0.11 in 1.23 in (1974)
Month to date precipitation 2.43  
Year to date precipitation 12.48  
Sea Level Pressure  
Sea Level Pressure 29.81 in    
Wind  
Wind Speed 7 mph (SSE)    
Max Wind Speed 17 mph    
Max Gust Speed 24 mph    
Visibility 6 miles    
Events Fog , Rain    
T = Trace of Precipitation, MM = Missing Value Source: NWS Daily Summary

Daily Weather History Graph

Daily Weather History Graph

Search for Another Location

Airport:

Trip Planner

Search our weather history database for the weather conditions in past years. The results will help you decide how hot, cold, wet, or windy it might be!

Date:

Astronomy

May. 23, 2013 Rise Set
Actual Time 5:12 AM EDT 8:17 PM EDT
Civil Twilight 4:37 AM EDT 8:53 PM EDT
Nautical Twilight 3:52 AM EDT 9:38 PM EDT
Astronomical Twilight 2:58 AM EDT 10:32 PM EDT
Moon 6:44 PM EDT 3:59 AM EDT
Length of Visible Light 16h 15m
Length of Day
15h 05m
Waxing Gibbous, 97% of the Moon is Illuminated
May 23
Waxing Gibbous
May 25
Full
May 31
Last Quarter
Jun 8
New
Jun 16
First Quarter

Hourly Weather History & Observations

Time (EDT) Temp. Dew Point Humidity Pressure Visibility Wind Dir Wind Speed Gust Speed Precip Events Conditions
12:15 AM 58.1 °F 54.5 °F 88% 29.86 in 10.0 mi South 9.2 mph - N/A   Overcast
12:35 AM 58.1 °F 54.5 °F 88% 29.86 in 10.0 mi South 4.6 mph - N/A   Overcast
12:55 AM 57.9 °F 54.1 °F 87% 29.85 in 10.0 mi SE 4.6 mph - N/A   Overcast
1:15 AM 57.6 °F 54.0 °F 88% 29.86 in 10.0 mi SSE 3.5 mph - N/A   Overcast
1:35 AM 57.4 °F 53.8 °F 88% 29.84 in 7.0 mi SSE 6.9 mph - N/A   Overcast
1:55 AM 57.2 °F 53.6 °F 88% 29.83 in 7.0 mi SSE 3.5 mph - N/A   Overcast
2:15 AM 57.2 °F 53.8 °F 88% 29.83 in 5.0 mi South 9.2 mph - N/A   Overcast
2:35 AM 57.2 °F 54.0 °F 89% 29.86 in 4.0 mi South 4.6 mph - N/A Rain Rain
2:55 AM 56.8 °F 53.8 °F 89% 29.85 in 3.0 mi ESE 4.6 mph - N/A Rain Rain
3:15 AM 56.8 °F 54.0 °F 90% 29.83 in 1.8 mi South 6.9 mph - N/A   Overcast
3:35 AM 57.2 °F 54.5 °F 91% 29.83 in 1.0 mi South 4.6 mph - N/A   Overcast
3:55 AM 57.7 °F 55.0 °F 91% 29.83 in 2.5 mi SSE 4.6 mph - N/A   Overcast
4:15 AM 58.1 °F 55.4 °F 91% 29.82 in 2.5 mi SSE 5.8 mph - N/A   Overcast
4:35 AM 58.3 °F 55.6 °F 91% 29.83 in 1.2 mi South 9.2 mph - N/A   Overcast
4:55 AM 58.1 °F 55.4 °F 91% 29.83 in 0.8 mi South 8.1 mph - N/A   Overcast
5:15 AM 58.3 °F 55.6 °F 91% 29.83 in 1.0 mi SSE 4.6 mph - N/A   Overcast
5:35 AM 58.1 °F 55.4 °F 91% 29.83 in 0.5 mi South 6.9 mph - N/A Fog Fog
5:55 AM 57.7 °F 55.0 °F 91% 29.83 in 0.2 mi SSE 4.6 mph - N/A Fog Fog
6:15 AM 57.9 °F 55.2 °F 91% 29.84 in 0.2 mi SSE 4.6 mph - N/A Fog Fog
6:35 AM 57.9 °F 55.2 °F 91% 29.84 in 0.2 mi SSE 6.9 mph - N/A Fog Fog
6:55 AM 58.1 °F 55.4 °F 91% 29.84 in 0.2 mi South 5.8 mph - N/A Fog Fog
7:15 AM 58.1 °F 55.4 °F 91% 29.84 in 0.2 mi SSE 6.9 mph - N/A Fog Fog
7:35 AM 57.7 °F 55.0 °F 91% 29.84 in 0.2 mi South 8.1 mph - N/A Fog Fog
7:55 AM 57.9 °F 55.2 °F 91% 29.84 in 0.2 mi South 9.2 mph - N/A Fog Fog
8:15 AM 58.1 °F 55.4 °F 91% 29.84 in 0.2 mi SSE 8.1 mph - N/A Fog Fog
8:35 AM 58.3 °F 55.6 °F 91% 29.84 in 0.8 mi South 6.9 mph - N/A   Overcast
8:55 AM 58.6 °F 55.9 °F 91% 29.84 in 1.0 mi SSE 9.2 mph - N/A   Overcast
9:15 AM 59.0 °F 56.3 °F 91% 29.84 in 1.5 mi South 10.4 mph - N/A   Overcast
9:35 AM 59.4 °F 56.7 °F 91% 29.84 in 2.5 mi SSE 9.2 mph - N/A   Overcast
9:55 AM 60.3 °F 57.6 °F 91% 29.84 in 4.0 mi SSE 8.1 mph - N/A   Overcast
10:15 AM 61.3 °F 58.6 °F 91% 29.83 in 5.0 mi SSE 10.4 mph - N/A   Overcast
10:35 AM 61.7 °F 58.8 °F 90% 29.84 in 5.0 mi South 8.1 mph - N/A   Overcast
10:55 AM 62.6 °F 58.3 °F 86% 29.84 in 5.0 mi SSE 8.1 mph - N/A Rain Light Rain
11:15 AM 63.5 °F 59.0 °F 85% 29.83 in 7.0 mi SSE 8.1 mph - N/A   Overcast
11:35 AM 64.0 °F 59.0 °F 84% 29.82 in 7.0 mi SSE 11.5 mph - N/A   Overcast
11:55 AM 65.5 °F 59.5 °F 81% 29.82 in 10.0 mi South 4.6 mph - N/A   Mostly Cloudy
12:15 PM 66.0 °F 59.9 °F 81% 29.82 in 10.0 mi South 6.9 mph - N/A   Overcast
12:35 PM 66.7 °F 60.1 °F 79% 29.82 in 10.0 mi South 4.6 mph - N/A   Overcast
12:55 PM 67.5 °F 60.6 °F 79% 29.82 in 10.0 mi SSE 4.6 mph - N/A   Mostly Cloudy
1:15 PM 67.6 °F 60.8 °F 79% 29.81 in 10.0 mi SE 3.5 mph - N/A   Mostly Cloudy
1:35 PM 68.7 °F 61.5 °F 78% 29.80 in 10.0 mi SSE 5.8 mph - N/A   Mostly Cloudy
1:55 PM 70.2 °F 62.1 °F 75% 29.79 in 10.0 mi South 9.2 mph - N/A   Mostly Cloudy
2:15 PM 68.9 °F 61.9 °F 78% 29.78 in 7.0 mi South 8.1 mph - N/A Rain Rain
2:35 PM 72.1 °F 63.9 °F 75% 29.78 in 10.0 mi South 10.4 mph - N/A   Mostly Cloudy
2:55 PM 72.0 °F 62.1 °F 71% 29.77 in 10.0 mi SSE 12.7 mph 17.3 mph N/A   Mostly Cloudy
3:15 PM 71.8 °F 62.1 °F 71% 29.77 in 10.0 mi South 12.7 mph - N/A   Overcast
3:35 PM 73.0 °F 62.2 °F 69% 29.76 in 10.0 mi SSE 12.7 mph 20.7 mph N/A   Mostly Cloudy
3:55 PM 71.8 °F 62.6 °F 73% 29.77 in 10.0 mi South 9.2 mph - N/A   Scattered Clouds
4:15 PM 72.1 °F 63.0 °F 73% 29.77 in 10.0 mi South 9.2 mph - N/A   Mostly Cloudy
4:35 PM 72.3 °F 62.8 °F 72% 29.76 in 10.0 mi SSE 12.7 mph 18.4 mph N/A   Overcast
4:55 PM 72.7 °F 63.3 °F 72% 29.76 in 10.0 mi South 15.0 mph 20.7 mph N/A   Mostly Cloudy
5:15 PM 73.8 °F 63.3 °F 70% 29.75 in 10.0 mi South 16.1 mph 23.0 mph N/A   Mostly Cloudy
5:35 PM 72.0 °F 62.6 °F 72% 29.76 in 10.0 mi South 17.3 mph 24.2 mph N/A   Mostly Cloudy
5:55 PM 71.2 °F 61.9 °F 72% 29.75 in 10.0 mi South 12.7 mph 18.4 mph N/A   Overcast
6:15 PM 70.9 °F 61.9 °F 73% 29.74 in 10.0 mi South 12.7 mph 21.9 mph N/A   Mostly Cloudy
6:35 PM 69.3 °F 58.1 °F 68% 29.78 in 10.0 mi West 11.5 mph - N/A   Overcast
6:55 PM 62.4 °F 56.5 °F 81% 29.78 in 7.0 mi WNW 8.1 mph 20.7 mph N/A Rain Light Rain
7:15 PM 63.5 °F 56.7 °F 78% 29.79 in 10.0 mi NW 6.9 mph - N/A   Overcast
7:35 PM 63.1 °F 56.8 °F 80% 29.80 in 10.0 mi East 6.9 mph - N/A   Overcast
7:55 PM 61.9 °F 57.0 °F 84% 29.79 in 10.0 mi ENE 4.6 mph - N/A   Overcast
8:15 PM 61.7 °F 57.2 °F 85% 29.78 in 10.0 mi NNE 5.8 mph - N/A Rain Light Rain
8:35 PM 61.3 °F 57.6 °F 87% 29.79 in 10.0 mi NE 5.8 mph - N/A Rain Light Rain
8:55 PM 61.7 °F 58.1 °F 88% 29.78 in 10.0 mi North 9.2 mph - N/A   Overcast
9:15 PM 61.0 °F 57.2 °F 87% 29.79 in 10.0 mi East 4.6 mph - N/A Rain Light Rain
9:35 PM 60.8 °F 57.4 °F 88% 29.78 in 5.0 mi Calm Calm - N/A Rain Light Rain
9:55 PM 61.0 °F 57.9 °F 90% 29.78 in 10.0 mi NNE 3.5 mph - N/A   Overcast
10:15 PM 60.8 °F 57.6 °F 89% 29.79 in 4.0 mi WNW 5.8 mph - N/A   Overcast
10:35 PM 61.7 °F 58.5 °F 89% 29.78 in 10.0 mi NNE 5.8 mph - N/A   Overcast
10:55 PM 61.7 °F 57.7 °F 87% 29.77 in 10.0 mi Calm Calm - N/A   Overcast
11:15 PM 61.0 °F 57.9 °F 90% 29.77 in 10.0 mi North 3.5 mph - N/A   Overcast
11:35 PM 60.8 °F 57.4 °F 88% 29.77 in 1.0 mi East 3.5 mph - N/A Rain Light Rain
11:55 PM 60.1 °F 57.2 °F 90% 29.77 in 10.0 mi Calm Calm - N/A Rain Light Rain